Tracking 35274 objects as of 10-Sep-2026
HD Live streaming from Space Station
objects crossing your sky now

SL-12 PLAT


SL-12 PLAT is no longer on orbit


NORAD ID: 29231
Int'l Code: 2006-022B
Launch date: June 17, 2006
Source: Commonwealth of Independent States (former USSR) (CIS)
Launch site: TYURATAM MISSILE AND SPACE COMPLEX (TTMTR)
Decay date: 2006-06-18
Your satellite tracking list
Your tracking list is empty




NASA's NSSDC Master Catalog

Two Line Element Set (TLE):
1 29231U 06022B   06169.61320734  .14273906  12413-4  98004-3 0  9996
2 29231 051.5610 252.7102 0021713 276.9847 083.3921 16.38985596   111
Source of the keplerian elements: AFSPC